Showing default

OPS 9315 (IDSCS 5), 2219

Orbit data source: Space-Track

OPS 9315 (IDSCS 5), 2219 is a payload satellite owned by USAF SSD (US) in GEO that was launched on Thu, 16 Jun 1966 UTC via a TITAN IIIC launch vehicle from the Air Force Eastern Test Range (AFETR). Payload-class satellites include a variety of spacecraft equipped with specific instruments for various scientific and technological missions. These include communications satellites like Starlink; space stations such as the ISS; scientific satellites like the Hubble; Earth observation satellites from companies like Planet Labs, Umbra, and HawkEye 360; GPS; miniature CubeSats for education and research; and military/defense satellites.

Not visible in the next 10 days
Identifier
2219, 1966-053F
Orbit
GEO
Last TLE update
2 days ago
Origin
Manufacturer
Philco-Ford WDL
Mission
Non-operational Defense Communications
Bus & Motor
IDCSP, Unknown motor
Mass
45 kg wet, 45 kg dry
Launch date (UTC)
1966-06-16 (59 years ago)
Launch vehicle
TITAN IIIC
Launch site
Air Force Eastern Test Range (AFETR)
Object type
Payload
Rocket body
Debris
Shape & HBR
Ico Poly, 0.9 m
Radar Cross Section
0.926 m², Large (>1 m²)

Expand to show TLE details & history

TLE from 2 days ago
0 OPS 9315 (IDSCS 5)
1 02219U 66053F   25118.42298220 -.00000103  00000-0  00000-0 0  9995
2 02219   7.7718  49.0908 0051354 179.5911 180.3031  1.07398898 52070
Epoch: 2025-04-28T10:09Z
Definitive object data (Epoch: 2025-04-28T10:09:05.662Z)
Latitude
-0.00001°
Longitude
40.06917°
Altitude
34,107.261 km
Speed
3.13 km/s
True Right ascension
03h 15m 55s
True Declination
0° 00' 00"
Sunlit
Object was in daylight at TLE epoch
Visualization TLE readout
Latitude
-7.13648°
Longitude
-73.41409°
Altitude
33,818.552 km
Speed
3.152 km/s
Apparent Right ascension
19h 39m 27s
Apparent Declination
-11° 26' 29"
Sunlit
Object is in daylight
Visualization observer readout
Local Sidereal Time
07:18:51
Azimuth
349.492° N
Elevation
-61.163°
Doppler factor
1
Orbital elements
Apogee altitude
34,107.868 km
Perigee altitude
33,694.169 km
Semi-major axis
40,279.156 km
Eccentricity
0.0051354
Inclination
7.7718°
RAAN
49.0908°
Arg. of periapsis
179.5911°
True anomaly
180.30001°
Mean anomaly
180.3031°
Eccentric anomaly
180.30155°
Mean motion
0.26849 °/min
BSTAR
Unknown
Orbital period
1340.85 mins
Loading historical data...
2219 neighbors
Loading maneuver chart data...
Loading SW <> Apogee altitude chart data...
Loading historical data...
Loading historical data...
Loading historical data...
Loading historical data...
Loading historical data...
Loading historical data...
Loading historical data...

OPS 9315 (IDSCS 5) Visibility forecast

Observer location: undefined°, undefined°

OPS 9315 (IDSCS 5) is not visible in the next 10 days
Span
Click to sort rows by Start time (UTC) header in descending order
Start Az.
Max El. time (UTC)
Max El. Az.
Max El.
End time (UTC)
End Az.
|